Weather History for Leticia, Colombia

Change the Weather History Date:

Sunday, December 8, 2013

  Actual Average Record
Temperature  
Mean Temperature 81 °F -  
Max Temperature 88 °F 85 °F 93 °F (2004)
Min Temperature 74 °F 72 °F 73 °F (1996)
Cooling Degree Days 16    
Growing Degree Days 31 (Base 50)    
Moisture  
Dew Point 76 °F    
Average Humidity 91    
Maximum Humidity 100    
Minimum Humidity 70    
Precipitation  
Precipitation 0.75 in 0.42 in - ()
Sea Level Pressure  
Sea Level Pressure 29.84 in    
Wind  
Wind Speed 1 mph ()    
Max Wind Speed 6 mph    
Max Gust Speed -    
Visibility 7.4 miles    
Events Rain , Thunderstorm    
Averages and records for this station are not official NWS values.
T = Trace of Precipitation, MM = Missing Value Source: Averaged Metar Reports

Daily Weather History Graph

Daily Weather History Graph

Search for Another Location

Airport:

Trip Planner

Search our weather history database for the weather conditions in past years. The results will help you decide how hot, cold, wet, or windy it might be!

Date:

Astronomy

Dec. 08, 2013 Rise Set
Actual Time 5:21 AM COT 5:42 PM COT
Civil Twilight 4:58 AM COT 6:05 PM COT
Nautical Twilight 4:32 AM COT 6:31 PM COT
Astronomical Twilight 4:05 AM COT 6:58 PM COT
Moon 10:46 AM COT (12/8) 11:13 PM COT (12/8)
Length of Visible Light 13h 06m
Length of Day
12h 21m
Waxing Crescent, 40% of the Moon is Illuminated
Dec 8
Waxing Crescent
Dec 9
First Quarter
Dec 17
Full
Dec 25
Last Quarter
Jan 1
New

Hourly Weather History & Observations

Time (COT) Temp. Heat Index Dew Point Humidity Pressure Visibility Wind Dir Wind Speed Gust Speed Precip Events Conditions
12:00 AM 75.2 °F - 75.2 °F 100% 29.86 in - Calm Calm - N/A   Clear
1:00 AM 76 °F - 75 °F 95% 29.86 in 12 mi Calm Calm - -   Partly Cloudy
1:00 AM 75.2 °F - 75.2 °F 100% 29.85 in 6.2 mi Calm Calm - N/A   Scattered Clouds
2:00 AM 75.2 °F - 75.2 °F 100% 29.83 in 6.2 mi Calm Calm - N/A   Scattered Clouds
3:00 AM 75.2 °F - 75.2 °F 100% 29.83 in 6.2 mi South 3.5 mph - N/A   Mostly Cloudy
4:00 AM 75 °F - 74 °F 98% 29.84 in 12 mi SSW 4.5 mph - -   Mostly Cloudy
4:00 AM 75.2 °F - 75.2 °F 100% 29.83 in 6.2 mi SSW 3.5 mph - N/A   Mostly Cloudy
5:00 AM 75.2 °F - 75.2 °F 100% 29.85 in 6.2 mi Calm Calm - N/A   Scattered Clouds
6:00 AM 75.2 °F - 73.4 °F 94% 29.86 in 6.2 mi Variable 2.3 mph - N/A   Mostly Cloudy
7:00 AM 77 °F - 75 °F 92% 29.88 in 12 mi Calm Calm - -   Mostly Cloudy
7:00 AM 77.0 °F - 75.2 °F 94% 29.88 in 6.2 mi Calm Calm - N/A   Scattered Clouds
8:00 AM 78.8 °F - 75.2 °F 89% 29.89 in 6.2 mi Calm Calm - N/A   Mostly Cloudy
9:00 AM 80.6 °F 87.1 °F 77.0 °F 89% 29.90 in 6.2 mi Calm Calm - N/A   Mostly Cloudy
10:00 AM 84 °F - 78 °F 77% 29.90 in 12 mi Calm Calm - -   Partly Cloudy
10:00 AM 84.2 °F 96.1 °F 78.8 °F 84% 29.89 in 6.2 mi Calm Calm - N/A   Mostly Cloudy
11:00 AM 86.0 °F 99.3 °F 78.8 °F 79% 29.88 in 6.2 mi SW 3.5 mph - N/A   Scattered Clouds
12:00 PM 87.8 °F 104.9 °F 80.6 °F 79% 29.86 in 6.2 mi SW 3.5 mph - N/A   Scattered Clouds
1:00 PM 88 °F - 80 °F 70% 29.82 in 9 mi West 4.5 mph - -   Mostly Cloudy
1:00 PM 87.8 °F 102.5 °F 78.8 °F 75% 29.82 in 6.2 mi West 3.5 mph - N/A   Mostly Cloudy
2:00 PM 77.0 °F - 75.2 °F 94% 29.82 in 3.7 mi East 5.8 mph - N/A   Mostly Cloudy
3:00 PM 77.0 °F - 75.2 °F 94% 29.77 in 5.0 mi Calm Calm - N/A   Mostly Cloudy
4:00 PM 80 °F - 76 °F 84% 29.75 in 12 mi North 2.2 mph - -   Partly Cloudy
4:00 PM 80.6 °F 86.2 °F 75.2 °F 84% 29.75 in 6.2 mi Variable 2.3 mph - N/A   Mostly Cloudy
5:00 PM 80.6 °F 87.1 °F 77.0 °F 89% 29.76 in 6.2 mi Variable 2.3 mph - N/A   Mostly Cloudy
6:00 PM 78.8 °F - 77.0 °F 94% 29.78 in 6.2 mi Calm Calm - N/A   Mostly Cloudy
7:00 PM 77 °F - 76 °F 95% 29.81 in 12 mi Calm Calm - -   Partly Cloudy
7:00 PM 77.0 °F - 75.2 °F 94% 29.81 in 6.2 mi Calm Calm - N/A   Mostly Cloudy
8:00 PM 77.0 °F - 75.2 °F 94% 29.82 in 6.2 mi Calm Calm - N/A   Scattered Clouds
9:00 PM 77.0 °F - 75.2 °F 94% 29.83 in 6.2 mi Calm Calm - N/A   Scattered Clouds
10:00 PM 75 °F - 74 °F 96% 29.90 in 12 mi Calm Calm - -   Partly Cloudy
10:00 PM - - - N/A% 29.90 in 6.2 mi Calm Calm - N/A   Scattered Clouds
11:00 PM 75.2 °F - 73.4 °F 94% 29.94 in 5.0 mi Calm Calm - N/A Rain , Thunderstorm Light Thunderstorms and Rain